CT2IRK-11 Weather Reports


time (UTC)temp
C
wind
direction
speed
KPH
gust
KPH
rain 1hr
cm
rain 24hr
cm
rain mn
cm
humidity
%
barometer
mb
20260901115005 28 60 9.7 22.5 0.00 0.00 0.00 50 1011.8
20260901112005 26 353 12.9 16.1 0.00 0.00 0.00 55 1012.0
20260901111005 27 10 12.9 19.3 0.00 0.00 0.00 55 1012.2
20260901110006 27 6 12.9 16.1 0.00 0.00 0.00 51 1012.3
20260901105005 27 328 0.0 3.2 0.00 0.00 0.00 52 1012.3
20260901104005 26 304 0.0 8.0 0.00 0.00 0.00 55 1012.3
20260901103005 27 338 8.0 11.3 0.00 0.00 0.00 53 1012.3
20260901102005 27 338 0.0 0.0 0.00 0.00 0.00 53 1012.5
20260901101005 26 238 0.0 14.5 0.00 0.00 0.00 55 1012.5
20260901100004 27 286 3.2 14.5 0.00 0.00 0.00 54 1012.4
20260901095005 25 328 8.0 16.1 0.00 0.00 0.00 62 1012.5
20260901094006 24 22 11.3 16.1 0.00 0.00 0.00 66 1012.5
20260901093004 23 11 11.3 16.1 0.00 0.00 0.00 70 1012.4
20260901092005 22 26 12.9 16.1 0.00 0.00 0.00 75 1012.4
20260901091004 22 18 3.2 11.3 0.00 0.00 0.00 74 1012.4
20260901090004 22 332 8.0 11.3 0.00 0.00 0.00 76 1012.1
20260901085004 21 264 0.0 8.0 0.00 0.00 0.00 77 1012.2
20260901084004 21 298 1.6 14.5 0.00 0.00 0.00 77 1012.2
20260901083004 21 299 8.0 14.5 0.00 0.00 0.00 76 1012.1
20260901082005 23 342 9.7 16.1 0.00 0.00 0.00 70 1012.0
20260901081005 22 86 8.0 19.3 0.00 0.00 0.00 74 1012.1
20260901080005 22 40 11.3 16.1 0.00 0.00 0.00 75 1012.0
20260901075005 21 6 11.3 19.3 0.00 0.00 0.00 79 1011.9
20260901074005 21 8 11.3 12.9 0.00 0.00 0.00 82 1011.9
20260901073005 20 359 8.0 12.9 0.00 0.00 0.00 85 1011.9
20260901070006 18 51 4.8 9.7 0.00 0.00 0.00 92 1011.7
20260901065005 17 28 8.0 9.7 0.00 0.00 0.00 98 1011.6
20260901063006 16 64 0.0 0.0 0.00 0.00 0.00 99 1011.5
20260901062005 15 180 0.0 0.0 0.00 0.00 0.00 99 1011.5
20260901061007 15 249 0.0 0.0 0.00 0.00 0.00 99 1011.4
20260901060006 15 225 0.0 0.0 0.00 0.00 0.00 99 1011.4
20260901055009 15 202 0.0 0.0 0.00 0.00 0.00 99 1011.3
20260901054006 15 112 0.0 0.0 0.00 0.00 0.00 99 1011.3
20260901052006 15 184 0.0 0.0 0.00 0.00 0.00 99 1011.1
20260901051006 15 221 0.0 0.0 0.00 0.00 0.00 99 1011.2
20260901050005 15 217 0.0 0.0 0.00 0.00 0.00 99 1011.2
20260901044005 16 202 0.0 0.0 0.00 0.00 0.00 99 1011.1
20260901043005 16 34 0.0 0.0 0.00 0.00 0.00 99 1011.2
20260901042006 16 106 0.0 0.0 0.00 0.00 0.00 99 1011.2
20260901041006 16 74 0.0 0.0 0.00 0.00 0.00 98 1011.3
20260901040005 16 86 0.0 0.0 0.00 0.00 0.00 97 1011.4
20260901035006 16 338 0.0 0.0 0.00 0.00 0.00 97 1011.3
20260901034006 16 6 0.0 0.0 0.00 0.00 0.00 96 1011.3
20260901033005 17 22 6.4 11.3 0.00 0.00 0.00 96 1011.3
20260901032006 17 35 6.4 11.3 0.00 0.00 0.00 96 1011.3
20260901031006 17 45 1.6 8.0 0.00 0.00 0.00 95 1011.3
20260901030006 17 67 0.0 3.2 0.00 0.00 0.00 94 1011.5
20260901025005 17 46 0.0 0.0 0.00 0.00 0.00 94 1011.5
20260901024006 17 81 0.0 1.6 0.00 0.00 0.00 95 1011.5
20260901023005 16 68 0.0 0.0 0.00 0.00 0.00 92 1011.6
20260901022005 16 166 0.0 0.0 0.00 0.00 0.00 92 1011.8
20260901021005 17 225 0.0 0.0 0.00 0.00 0.00 91 1011.8
20260901020005 17 270 0.0 9.7 0.00 0.00 0.00 90 1011.8
20260901015005 18 353 8.0 14.5 0.00 0.00 0.00 89 1011.8
20260901014005 18 22 14.5 16.1 0.00 0.00 0.00 88 1011.8
20260901013007 18 31 11.3 19.3 0.00 0.00 0.00 89 1011.8
20260901012005 18 22 11.3 14.5 0.00 0.00 0.00 90 1011.9
20260901011006 18 21 11.3 14.5 0.00 0.00 0.00 89 1012.1
20260901005005 18 23 9.7 16.1 0.00 0.00 0.00 89 1012.4
20260901004005 18 49 9.7 16.1 0.00 0.00 0.00 89 1012.4
20260901003005 18 7 11.3 16.1 0.00 0.00 0.00 89 1012.4
20260901001006 18 358 12.9 22.5 0.00 0.00 0.00 89 1012.3
20260901000005 18 33 19.3 24.1 0.00 0.00 0.00 88 1012.3
20260831235006 18 41 11.3 19.3 0.00 0.00 0.00 88 1012.5
20260831234006 18 12 14.5 24.1 0.00 0.00 0.00 87 1012.5
20260831233008 18 335 14.5 20.9 0.00 0.00 0.00 87 1012.5
20260831232005 18 7 16.1 25.7 0.00 0.00 0.00 86 1012.5
20260831231011 18 37 19.3 24.1 0.00 0.00 0.00 86 1012.5
20260831230007 18 35 16.1 22.5 0.00 0.00 0.00 86 1012.4
20260831225006 18 36 16.1 22.5 0.00 0.00 0.00 85 1012.6
20260831224005 18 22 19.3 27.4 0.00 0.00 0.00 84 1012.6
20260831223006 18 34 19.3 25.7 0.00 0.00 0.00 84 1013.0
20260831222005 18 8 20.9 27.4 0.00 0.00 0.00 84 1013.0
20260831221005 18 22 19.3 29.0 0.00 0.00 0.00 84 1013.0
20260831220005 18 22 24.1 25.7 0.00 0.00 0.00 84 1013.0
20260831215009 19 32 19.3 25.7 0.00 0.00 0.00 83 1013.1
20260831214006 19 347 14.5 29.0 0.00 0.00 0.00 82 1013.1
20260831213005 19 12 16.1 25.7 0.00 0.00 0.00 81 1012.9
20260831212005 19 39 17.7 27.4 0.00 0.00 0.00 80 1013.0
20260831211005 19 354 20.9 32.2 0.00 0.00 0.00 78 1013.0
20260831210005 20 22 24.1 27.4 0.00 0.00 0.00 75 1012.8
20260831205005 20 22 12.9 25.7 0.00 0.00 0.00 75 1012.6
20260831204005 20 18 17.7 24.1 0.00 0.00 0.00 75 1012.6
20260831203006 20 35 9.7 14.5 0.00 0.00 0.00 74 1012.7
20260831202007 20 22 9.7 12.9 0.00 0.00 0.00 73 1012.5
20260831201005 20 34 0.0 0.0 0.00 0.00 0.00 73 1012.3
20260831200005 20 22 0.0 0.0 0.00 0.00 0.00 73 1012.2
20260831194005 20 22 1.6 12.9 0.00 0.00 0.00 70 1012.0
20260831193005 21 30 1.6 16.1 0.00 0.00 0.00 69 1011.8
20260831191005 22 22 8.0 19.3 0.00 0.00 0.00 65 1011.7
20260831190006 22 57 4.8 16.1 0.00 0.00 0.00 62 1011.5
20260831185005 23 25 9.7 16.1 0.00 0.00 0.00 59 1011.5
20260831184005 23 30 6.4 20.9 0.00 0.00 0.00 56 1011.5
20260831183005 24 37 12.9 16.1 0.00 0.00 0.00 53 1011.4
20260831181005 25 14 11.3 16.1 0.00 0.00 0.00 49 1011.3
20260831180005 25 3 14.5 20.9 0.00 0.00 0.00 49 1011.2
20260831175005 25 10 14.5 24.1 0.00 0.00 0.00 49 1011.2
20260831174005 26 339 14.5 22.5 0.00 0.00 0.00 50 1011.2
20260831173005 26 359 14.5 24.1 0.00 0.00 0.00 50 1011.2
20260831172005 26 333 6.4 24.1 0.00 0.00 0.00 50 1011.1
20260831171005 26 33 14.5 24.1 0.00 0.00 0.00 50 1011.1
20260831170005 26 3 17.7 24.1 0.00 0.00 0.00 50 1011.2
20260831165154 27 355 19.3 25.7 0.00 0.00 0.00 50 1011.2
20260831164005 27 290 16.1 24.1 0.00 0.00 0.00 48 1011.2
20260831162004 28 15 12.9 25.7 0.00 0.00 0.00 45 1011.2
20260831160005 28 21 19.3 24.1 0.00 0.00 0.00 44 1011.1
20260831154005 28 33 16.1 24.1 0.00 0.00 0.00 43 1011.2
20260831153005 29 31 14.5 24.1 0.00 0.00 0.00 40 1011.2
20260831151005 29 34 14.5 20.9 0.00 0.00 0.00 41 1011.3
20260831150006 29 2 14.5 22.5 0.00 0.00 0.00 41 1011.4
20260831145005 29 351 11.3 22.5 0.00 0.00 0.00 40 1011.5
20260831144005 29 356 16.1 22.5 0.00 0.00 0.00 37 1011.5
20260831143006 30 4 16.1 22.5 0.00 0.00 0.00 36 1011.6
20260831141005 30 0 14.5 22.5 0.00 0.00 0.00 33 1011.6
20260831140004 30 357 11.3 19.3 0.00 0.00 0.00 33 1011.7
20260831135005 30 12 16.1 20.9 0.00 0.00 0.00 33 1011.8
20260831133004 29 22 12.9 20.9 0.00 0.00 0.00 35 1011.9
20260831132005 29 8 14.5 22.5 0.00 0.00 0.00 36 1012.0
20260831131005 29 288 14.5 20.9 0.00 0.00 0.00 38 1012.2
20260831130004 29 333 11.3 19.3 0.00 0.00 0.00 37 1012.3
20260831125005 29 342 17.7 20.9 0.00 0.00 0.00 34 1012.3
20260831124005 28 49 16.1 25.7 0.00 0.00 0.00 34 1012.3
20260831123005 28 16 8.0 20.9 0.00 0.00 0.00 34 1012.3
20260831122005 28 332 14.5 22.5 0.00 0.00 0.00 36 1012.6
20260831121005 28 330 14.5 24.1 0.00 0.00 0.00 36 1012.7
20260831120004 28 348 11.3 20.9 0.00 0.00 0.00 34 1012.8